Weather History for KEWB - January, 2015

Change the Weather History Date:

Tuesday, January 20, 2015

  Actual Average Record
Temperature  
Mean Temperature 32 °F -  
Max Temperature 37 °F 35 °F 55 °F (2013)
Min Temperature 28 °F 21 °F 2 °F (1971)
Degree Days  
Heating Degree Days 32    
Moisture  
Dew Point 17 °F    
Average Humidity 53    
Maximum Humidity 69    
Minimum Humidity 38    
Precipitation  
Precipitation 0.00 in - - ()
Sea Level Pressure  
Sea Level Pressure 29.85 in    
Wind  
Wind Speed 11 mph (West)    
Max Wind Speed 17 mph    
Max Gust Speed 24 mph    
Visibility 10 miles    
Events      
Averages and records for this station are not official NWS values.
T = Trace of Precipitation, MM = Missing Value Source: NWS Daily Summary

Daily Weather History Graph

Daily Weather History Graph

Search for Another Location

Airport or City:

Trip Planner

Search our weather history database for the weather conditions in past years. The results will help you decide how hot, cold, wet, or windy it might be!

Date:

Astronomy

Jan. 20, 2015 Rise Set
Actual Time 7:05 AM EST 4:44 PM EST
Civil Twilight 6:35 AM EST 5:14 PM EST
Nautical Twilight 6:01 AM EST 5:48 PM EST
Astronomical Twilight 5:28 AM EST 6:21 PM EST
Moon 6:45 AM EST (1/20) 5:18 PM EST (1/20)
Length of Visible Light 10h 38m
Length of Day
9h 38m
New Moon, 0% of the Moon is Illuminated
Jan 20
New Moon
Jan 26
First Quarter
Feb 3
Full
Feb 11
Last Quarter
Feb 18
New

Hourly Weather History & Observations

Time (EST) Temp. Windchill Dew Point Humidity Pressure Visibility Wind Dir Wind Speed Gust Speed Precip Events Conditions
12:53 AM 32.0 °F 22.1 °F 21.9 °F 66% 29.78 in 10.0 mi West 13.8 mph - N/A   Clear
1:53 AM 32.0 °F 24.2 °F 21.9 °F 66% 29.79 in 10.0 mi West 9.2 mph - N/A   Clear
2:53 AM 30.9 °F 21.2 °F 21.0 °F 67% 29.79 in 10.0 mi West 12.7 mph 18.4 mph N/A   Clear
3:53 AM 30.0 °F 20.0 °F 21.0 °F 69% 29.79 in 10.0 mi West 12.7 mph - N/A   Clear
4:53 AM 30.0 °F 20.0 °F 19.9 °F 66% 29.79 in 10.0 mi West 12.7 mph - N/A   Clear
5:53 AM 30.0 °F 21.1 °F 18.0 °F 61% 29.81 in 10.0 mi West 10.4 mph - N/A   Clear
6:53 AM 28.4 °F 23.3 °F 17.6 °F 64% 29.83 in 10.0 mi West 4.6 mph - N/A   Clear
7:53 AM 30.0 °F 21.1 °F 17.1 °F 59% 29.84 in 10.0 mi West 10.4 mph 18.4 mph N/A   Clear
8:53 AM 32.0 °F 20.8 °F 18.0 °F 56% 29.86 in 10.0 mi West 17.3 mph 23.0 mph N/A   Clear
9:53 AM 34.0 °F 24.6 °F 18.0 °F 52% 29.86 in 10.0 mi West 13.8 mph 24.2 mph 0.00 in   Clear
10:53 AM 35.1 °F 27.4 °F 19.0 °F 52% 29.85 in 10.0 mi West 10.4 mph - N/A   Clear
11:53 AM 36.0 °F 27.1 °F 18.0 °F 48% 29.83 in 10.0 mi West 13.8 mph - N/A   Clear
12:53 PM 36.0 °F 26.0 °F 18.0 °F 48% 29.81 in 10.0 mi West 17.3 mph 23.0 mph N/A   Clear
1:53 PM 37.0 °F 28.5 °F 17.1 °F 44% 29.81 in 10.0 mi West 13.8 mph - N/A   Clear
2:53 PM 37.4 °F 28.9 °F 15.8 °F 41% 29.82 in 10.0 mi West 13.8 mph - N/A   Clear
3:53 PM 36.0 °F 28.0 °F 16.0 °F 44% 29.83 in 10.0 mi West 11.5 mph - N/A   Clear
4:53 PM 34.0 °F 26.0 °F 15.1 °F 46% 29.84 in 10.0 mi West 10.4 mph - N/A   Clear
5:53 PM 33.1 °F 24.9 °F 16.0 °F 50% 29.88 in 10.0 mi West 10.4 mph - N/A   Clear
6:53 PM 33.1 °F 26.9 °F 16.0 °F 50% 29.90 in 10.0 mi WSW 6.9 mph - N/A   Clear
7:53 PM 32.0 °F 26.4 °F 16.0 °F 52% 29.91 in 10.0 mi WSW 5.8 mph - N/A   Clear
8:53 PM 32.0 °F 23.6 °F 12.0 °F 44% 29.92 in 10.0 mi WNW 10.4 mph - N/A   Clear
9:53 PM 30.9 °F 24.3 °F 9.0 °F 40% 29.94 in 10.0 mi WNW 6.9 mph - N/A   Clear
10:53 PM 30.0 °F 25.2 °F 7.0 °F 38% 29.96 in 10.0 mi WNW 4.6 mph - N/A   Clear
11:53 PM 28.0 °F 20.8 °F 7.0 °F 41% 29.98 in 10.0 mi WNW 6.9 mph - N/A   Clear